| time (UTC) | temp C | wind direction | speed KPH | gust KPH | rain 1hr cm | rain 24hr cm | rain mn cm | humidity % | barometer mb |
| 20260503004546 | 25 | 242 | 3.2 | 12.9 | 0.00 | 0.00 | 0.00 | 100 | 1013.3 |
| 20260503004045 | 25 | 294 | 1.6 | 9.7 | 0.00 | 0.00 | 0.00 | 100 | 1013.4 |
| 20260503003547 | 25 | 294 | 3.2 | 11.3 | 0.00 | 0.00 | 0.00 | 100 | 1013.3 |
| 20260503003046 | 25 | 243 | 3.2 | 11.3 | 0.00 | 0.00 | 0.00 | 100 | 1013.3 |
| 20260503002545 | 25 | 317 | 3.2 | 12.9 | 0.00 | 0.00 | 0.00 | 100 | 1013.3 |
| 20260503002045 | 25 | 295 | 4.8 | 12.9 | 0.00 | 0.00 | 0.00 | 100 | 1013.3 |
| 20260503001545 | 25 | 284 | 4.8 | 12.9 | 0.00 | 0.00 | 0.00 | 100 | 1013.1 |
| 20260503001046 | 25 | 297 | 4.8 | 12.9 | 0.00 | 0.00 | 0.00 | 100 | 1013.1 |
| 20260503000544 | 25 | 275 | 4.8 | 12.9 | 0.00 | 0.00 | 0.00 | 100 | 1013.0 |
| 20260503000044 | 25 | 305 | 4.8 | 19.3 | 0.00 | 0.00 | 0.00 | 100 | 1013.1 |
| 20260502235545 | 25 | 296 | 6.4 | 19.3 | 0.00 | 0.00 | 0.00 | 100 | 1013.2 |
| 20260502235043 | 25 | 268 | 4.8 | 17.7 | 0.00 | 0.00 | 0.00 | 100 | 1013.2 |
| 20260502234546 | 25 | 322 | 4.8 | 17.7 | 0.00 | 0.00 | 0.00 | 100 | 1013.2 |
| 20260502234044 | 25 | 290 | 4.8 | 17.7 | 0.00 | 0.00 | 0.00 | 100 | 1013.2 |
| 20260502233544 | 25 | 313 | 4.8 | 12.9 | 0.00 | 0.00 | 0.00 | 100 | 1013.3 |
| 20260502233043 | 25 | 305 | 3.2 | 8.0 | 0.00 | 0.00 | 0.00 | 100 | 1013.0 |
| 20260502232544 | 25 | 311 | 3.2 | 8.0 | 0.00 | 0.00 | 0.00 | 100 | 1012.9 |
| 20260502232042 | 25 | 320 | 3.2 | 8.0 | 0.00 | 0.00 | 0.00 | 100 | 1012.8 |
| 20260502231546 | 25 | 315 | 3.2 | 8.0 | 0.00 | 0.00 | 0.00 | 100 | 1012.9 |
| 20260502231044 | 25 | 272 | 0.0 | 9.7 | 0.00 | 0.00 | 0.00 | 100 | 1012.8 |
| 20260502230543 | 26 | 222 | 1.6 | 17.7 | 0.00 | 0.00 | 0.00 | 100 | 1012.9 |
| 20260502230043 | 27 | 286 | 8.0 | 20.9 | 0.00 | 0.00 | 0.00 | 100 | 1012.6 |
| 20260502225542 | 27 | 318 | 6.4 | 22.5 | 0.00 | 0.00 | 0.00 | 100 | 1012.5 |
| 20260502225042 | 28 | 344 | 8.0 | 20.9 | 0.00 | 0.00 | 0.00 | 100 | 1012.1 |
| 20260502224543 | 28 | 331 | 8.0 | 20.9 | 0.00 | 0.00 | 0.00 | 100 | 1012.1 |
| 20260502224041 | 29 | 323 | 6.4 | 20.9 | 0.00 | 0.00 | 0.00 | 100 | 1012.0 |
| 20260502223541 | 30 | 302 | 8.0 | 16.1 | 0.00 | 0.00 | 0.00 | 100 | 1011.9 |
| 20260502223045 | 30 | 306 | 8.0 | 16.1 | 0.00 | 0.00 | 0.00 | 100 | 1011.8 |
| 20260502222544 | 30 | 296 | 3.2 | 16.1 | 0.00 | 0.00 | 0.00 | 100 | 1011.8 |
| 20260502222040 | 30 | 337 | 6.4 | 16.1 | 0.00 | 0.00 | 0.00 | 100 | 1011.8 |
| 20260502221545 | 30 | 348 | 6.4 | 19.3 | 0.00 | 0.00 | 0.00 | 100 | 1011.8 |
| 20260502221042 | 30 | 316 | 6.4 | 19.3 | 0.00 | 0.00 | 0.00 | 100 | 1011.7 |
| 20260502220542 | 30 | 355 | 6.4 | 17.7 | 0.00 | 0.00 | 0.00 | 100 | 1011.6 |
| 20260502220040 | 30 | 348 | 6.4 | 14.5 | 0.00 | 0.00 | 0.00 | 100 | 1011.6 |
| 20260502215540 | 31 | 314 | 6.4 | 14.5 | 0.00 | 0.00 | 0.00 | 100 | 1011.6 |
| 20260502215039 | 31 | 340 | 8.0 | 14.5 | 0.00 | 0.00 | 0.00 | 100 | 1011.6 |
| 20260502214550 | 31 | 308 | 4.8 | 20.9 | 0.00 | 0.00 | 0.00 | 100 | 1011.7 |
| 20260502214039 | 31 | 333 | 6.4 | 20.9 | 0.00 | 0.00 | 0.00 | 100 | 1011.7 |
| 20260502213542 | 31 | 319 | 8.0 | 20.9 | 0.00 | 0.00 | 0.00 | 100 | 1011.7 |
| 20260502213039 | 31 | 340 | 6.4 | 19.3 | 0.00 | 0.00 | 0.00 | 100 | 1011.7 |
| 20260502212540 | 31 | 315 | 4.8 | 16.1 | 0.00 | 0.00 | 0.00 | 100 | 1011.7 |
| 20260502212038 | 32 | 315 | 3.2 | 17.7 | 0.00 | 0.00 | 0.00 | 100 | 1011.5 |
| 20260502211538 | 32 | 291 | 9.7 | 17.7 | 0.00 | 0.00 | 0.00 | 100 | 1011.4 |
| 20260502211037 | 32 | 302 | 6.4 | 19.3 | 0.00 | 0.00 | 0.00 | 100 | 1011.3 |
| 20260502210535 | 32 | 342 | 4.8 | 20.9 | 0.00 | 0.00 | 0.00 | 100 | 1011.3 |
| 20260502210046 | 32 | 265 | 6.4 | 20.9 | 0.00 | 0.00 | 0.00 | 100 | 1011.2 |
| 20260502205533 | 32 | 316 | 4.8 | 16.1 | 0.00 | 0.00 | 0.00 | 100 | 1011.2 |
| 20260502205031 | 32 | 28 | 4.8 | 17.7 | 0.00 | 0.00 | 0.00 | 100 | 1011.2 |
| 20260502204532 | 32 | 317 | 4.8 | 17.7 | 0.00 | 0.00 | 0.00 | 100 | 1011.3 |
| 20260502204029 | 32 | 296 | 3.2 | 17.7 | 0.00 | 0.00 | 0.00 | 100 | 1011.2 |
| 20260502203526 | 32 | 318 | 4.8 | 20.9 | 0.00 | 0.00 | 0.00 | 100 | 1011.2 |
| 20260502203025 | 32 | 291 | 8.0 | 20.9 | 0.00 | 0.00 | 0.00 | 100 | 1011.3 |
| 20260502202525 | 32 | 227 | 6.4 | 24.1 | 0.00 | 0.00 | 0.00 | 100 | 1011.3 |
| 20260502202021 | 32 | 228 | 8.0 | 24.1 | 0.00 | 0.00 | 0.00 | 100 | 1011.2 |
| 20260502201523 | 32 | 259 | 9.7 | 20.9 | 0.00 | 0.00 | 0.00 | 100 | 1011.3 |
| 20260502201019 | 32 | 334 | 4.8 | 22.5 | 0.00 | 0.00 | 0.00 | 100 | 1011.3 |
| 20260502200517 | 32 | 217 | 6.4 | 22.5 | 0.00 | 0.00 | 0.00 | 100 | 1011.2 |
| 20260502200016 | 32 | 243 | 8.0 | 17.7 | 0.00 | 0.00 | 0.00 | 100 | 1011.3 |
| 20260502195513 | 32 | 234 | 6.4 | 22.5 | 0.00 | 0.00 | 0.00 | 100 | 1011.2 |
| 20260502195013 | 32 | 234 | 6.4 | 24.1 | 0.00 | 0.00 | 0.00 | 100 | 1011.3 |
| 20260502194512 | 32 | 244 | 6.4 | 24.1 | 0.00 | 0.00 | 0.00 | 100 | 1011.4 |
| 20260502194010 | 32 | 242 | 4.8 | 27.4 | 0.00 | 0.00 | 0.00 | 100 | 1011.4 |
| 20260502193511 | 32 | 196 | 12.9 | 27.4 | 0.00 | 0.00 | 0.00 | 100 | 1011.5 |
| 20260502193007 | 32 | 306 | 9.7 | 24.1 | 0.00 | 0.00 | 0.00 | 100 | 1011.5 |
| 20260502192508 | 32 | 309 | 8.0 | 27.4 | 0.00 | 0.00 | 0.00 | 100 | 1011.6 |
| 20260502192006 | 32 | 261 | 12.9 | 27.4 | 0.00 | 0.00 | 0.00 | 100 | 1011.6 |
| 20260502191502 | 32 | 350 | 9.7 | 30.6 | 0.00 | 0.00 | 0.00 | 100 | 1011.5 |
| 20260502191001 | 32 | 211 | 9.7 | 33.8 | 0.00 | 0.00 | 0.00 | 100 | 1011.6 |
| 20260502190559 | 32 | 247 | 17.7 | 33.8 | 0.00 | 0.00 | 0.00 | 100 | 1011.5 |
| 20260502190158 | 32 | 232 | 14.5 | 33.8 | 0.00 | 0.00 | 0.00 | 100 | 1011.7 |
| 20260502185556 | 32 | 167 | 14.5 | 30.6 | 0.00 | 0.00 | 0.00 | 100 | 1011.7 |
| 20260502185054 | 32 | 252 | 8.0 | 24.1 | 0.00 | 0.00 | 0.00 | 100 | 1011.6 |
| 20260502184553 | 32 | 216 | 6.4 | 24.1 | 0.00 | 0.00 | 0.00 | 100 | 1011.6 |
| 20260502184053 | 32 | 242 | 6.4 | 24.1 | 0.00 | 0.00 | 0.00 | 100 | 1011.6 |
| 20260502183551 | 32 | 230 | 6.4 | 24.1 | 0.00 | 0.00 | 0.00 | 100 | 1011.6 |
| 20260502183056 | 32 | 217 | 8.0 | 25.7 | 0.00 | 0.00 | 0.00 | 100 | 1011.7 |
| 20260502182549 | 32 | 234 | 9.7 | 25.7 | 0.00 | 0.00 | 0.00 | 100 | 1011.8 |
| 20260502182045 | 32 | 231 | 8.0 | 24.1 | 0.00 | 0.00 | 0.00 | 100 | 1011.8 |
| 20260502181544 | 32 | 216 | 8.0 | 29.0 | 0.00 | 0.00 | 0.00 | 100 | 1011.8 |
| 20260502181046 | 32 | 227 | 16.1 | 29.0 | 0.00 | 0.00 | 0.00 | 100 | 1011.8 |
| 20260502180541 | 32 | 160 | 6.4 | 32.2 | 0.00 | 0.00 | 0.00 | 100 | 1011.9 |
| 20260502164016 | 31 | 198 | 14.5 | 32.2 | 0.00 | 0.00 | 0.00 | 100 | 1012.8 |
| 20260502163517 | 31 | 229 | 9.7 | 30.6 | 0.00 | 0.00 | 0.00 | 100 | 1012.8 |
| 20260502163019 | 31 | 211 | 11.3 | 30.6 | 0.00 | 0.00 | 0.00 | 100 | 1012.9 |
| 20260502162512 | 31 | 294 | 11.3 | 27.4 | 0.00 | 0.00 | 0.00 | 100 | 1012.9 |
| 20260502162011 | 31 | 231 | 4.8 | 30.6 | 0.00 | 0.00 | 0.00 | 100 | 1012.8 |
| 20260502161508 | 30 | 227 | 12.9 | 30.6 | 0.00 | 0.00 | 0.00 | 100 | 1012.9 |
| 20260502161007 | 30 | 239 | 8.0 | 30.6 | 0.00 | 0.00 | 0.00 | 100 | 1013.0 |
| 20260502160507 | 30 | 229 | 9.7 | 30.6 | 0.00 | 0.00 | 0.00 | 100 | 1013.0 |
| 20260502152053 | 29 | 229 | 11.3 | 27.4 | 0.00 | 0.00 | 0.00 | 100 | 1012.9 |
| 20260502151556 | 29 | 159 | 11.3 | 27.4 | 0.00 | 0.00 | 0.00 | 100 | 1012.9 |
| 20260502151050 | 28 | 219 | 9.7 | 27.4 | 0.00 | 0.00 | 0.00 | 100 | 1012.8 |
| 20260502150550 | 28 | 234 | 9.7 | 27.4 | 0.00 | 0.00 | 0.00 | 100 | 1012.9 |
| 20260502130535 | 25 | 223 | 3.2 | 14.5 | 0.00 | 0.00 | 0.00 | 100 | 1012.8 |
| 20260502123533 | 23 | 211 | 3.2 | 11.3 | 0.00 | 0.00 | 0.00 | 100 | 1012.8 |
| 20260502123039 | 23 | 238 | 1.6 | 11.3 | 0.00 | 0.00 | 0.00 | 100 | 1012.8 |
| 20260502122531 | 23 | 222 | 1.6 | 8.0 | 0.00 | 0.00 | 0.00 | 100 | 1012.7 |
| 20260502122031 | 22 | 244 | 3.2 | 11.3 | 0.00 | 0.00 | 0.00 | 100 | 1012.8 |
| 20260502121533 | 22 | 251 | 3.2 | 11.3 | 0.00 | 0.00 | 0.00 | 100 | 1012.6 |
| 20260502121030 | 22 | 244 | 1.6 | 8.0 | 0.00 | 0.00 | 0.00 | 100 | 1012.7 |
| 20260502120531 | 22 | 219 | 1.6 | 8.0 | 0.00 | 0.00 | 0.00 | 100 | 1012.8 |
| 20260502115530 | 21 | 244 | 3.2 | 8.0 | 0.00 | 0.00 | 0.00 | 100 | 1012.6 |
| 20260502115030 | 21 | 182 | 1.6 | 9.7 | 0.00 | 0.00 | 0.00 | 100 | 1012.7 |
| 20260502114540 | 21 | 186 | 3.2 | 9.7 | 0.00 | 0.00 | 0.00 | 100 | 1012.6 |
| 20260502114031 | 21 | 180 | 1.6 | 8.0 | 0.00 | 0.00 | 0.00 | 100 | 1012.7 |
| 20260502113530 | 21 | 235 | 1.6 | 9.7 | 0.00 | 0.00 | 0.00 | 100 | 1012.8 |
| 20260502113031 | 21 | 166 | 3.2 | 9.7 | 0.00 | 0.00 | 0.00 | 100 | 1012.7 |
| 20260502112529 | 21 | 194 | 3.2 | 6.4 | 0.00 | 0.00 | 0.00 | 100 | 1012.7 |
| 20260502112031 | 21 | 205 | 1.6 | 6.4 | 0.00 | 0.00 | 0.00 | 100 | 1012.8 |
| 20260502111529 | 21 | 207 | 1.6 | 6.4 | 0.00 | 0.00 | 0.00 | 100 | 1012.9 |
| 20260502111029 | 21 | 227 | 0.0 | 4.8 | 0.00 | 0.00 | 0.00 | 100 | 1012.9 |
| 20260502110529 | 21 | 229 | 1.6 | 6.4 | 0.00 | 0.00 | 0.00 | 100 | 1012.9 |
| 20260502110029 | 21 | 238 | 1.6 | 6.4 | 0.00 | 0.00 | 0.00 | 100 | 1012.9 |
| 20260502105527 | 21 | 230 | 3.2 | 6.4 | 0.00 | 0.00 | 0.00 | 100 | 1012.9 |
| 20260502105029 | 21 | 210 | 1.6 | 6.4 | 0.00 | 0.00 | 0.00 | 100 | 1012.8 |
| 20260502104527 | 21 | 211 | 1.6 | 6.4 | 0.00 | 0.00 | 0.00 | 100 | 1012.7 |
| 20260502104028 | 21 | 213 | 0.0 | 4.8 | 0.00 | 0.00 | 0.00 | 100 | 1012.8 |
| 20260502103527 | 21 | 212 | 1.6 | 4.8 | 0.00 | 0.00 | 0.00 | 100 | 1012.7 |
| 20260502103027 | 21 | 213 | 0.0 | 4.8 | 0.00 | 0.00 | 0.00 | 100 | 1012.7 |
| 20260502102527 | 21 | 207 | 0.0 | 6.4 | 0.00 | 0.00 | 0.00 | 100 | 1012.7 |
| 20260502102027 | 21 | 202 | 0.0 | 9.7 | 0.00 | 0.00 | 0.00 | 100 | 1012.7 |
| 20260502101526 | 21 | 197 | 3.2 | 9.7 | 0.00 | 0.00 | 0.00 | 100 | 1012.7 |
| 20260502101026 | 21 | 208 | 1.6 | 6.4 | 0.00 | 0.00 | 0.00 | 100 | 1012.7 |
| 20260502100525 | 21 | 210 | 1.6 | 6.4 | 0.00 | 0.00 | 0.00 | 100 | 1012.8 |
| 20260502091521 | 21 | 246 | 0.0 | 4.8 | 0.00 | 0.00 | 0.00 | 100 | 1012.7 |
| 20260502091021 | 21 | 294 | 0.0 | 8.0 | 0.00 | 0.00 | 0.00 | 100 | 1012.6 |
| 20260502090521 | 21 | 229 | 1.6 | 8.0 | 0.00 | 0.00 | 0.00 | 100 | 1012.6 |
| 20260502071510 | 23 | 240 | 1.6 | 8.0 | 0.00 | 0.00 | 0.00 | 100 | 1012.6 |
| 20260502071010 | 23 | 240 | 1.6 | 9.7 | 0.00 | 0.00 | 0.00 | 100 | 1012.5 |
| 20260502070509 | 23 | 229 | 3.2 | 6.4 | 0.00 | 0.00 | 0.00 | 100 | 1012.6 |
| 20260502070009 | 23 | 222 | 1.6 | 6.4 | 0.00 | 0.00 | 0.00 | 100 | 1012.7 |
| 20260502065508 | 23 | 230 | 1.6 | 6.4 | 0.00 | 0.00 | 0.00 | 100 | 1012.5 |
| 20260502065007 | 23 | 235 | 0.0 | 11.3 | 0.00 | 0.00 | 0.00 | 100 | 1012.5 |
| 20260502064512 | 23 | 234 | 1.6 | 11.3 | 0.00 | 0.00 | 0.00 | 100 | 1012.5 |
| 20260502064007 | 23 | 233 | 1.6 | 8.0 | 0.00 | 0.00 | 0.00 | 100 | 1012.5 |
| 20260502063507 | 23 | 220 | 1.6 | 8.0 | 0.00 | 0.00 | 0.00 | 100 | 1012.7 |
| 20260502063009 | 23 | 196 | 3.2 | 8.0 | 0.00 | 0.00 | 0.00 | 100 | 1012.5 |
| 20260502062506 | 23 | 213 | 1.6 | 8.0 | 0.00 | 0.00 | 0.00 | 100 | 1012.5 |
| 20260502062006 | 23 | 218 | 1.6 | 8.0 | 0.00 | 0.00 | 0.00 | 100 | 1012.6 |
| 20260502061504 | 23 | 199 | 1.6 | 6.4 | 0.00 | 0.00 | 0.00 | 100 | 1012.6 |
| 20260502061003 | 23 | 213 | 1.6 | 8.0 | 0.00 | 0.00 | 0.00 | 100 | 1012.6 |
| 20260502060505 | 23 | 212 | 3.2 | 11.3 | 0.00 | 0.00 | 0.00 | 100 | 1012.8 |
| 20260502060003 | 23 | 198 | 1.6 | 11.3 | 0.00 | 0.00 | 0.00 | 100 | 1012.8 |
| 20260502055502 | 23 | 228 | 3.2 | 8.0 | 0.00 | 0.00 | 0.00 | 100 | 1012.7 |
| 20260502055001 | 23 | 246 | 3.2 | 12.9 | 0.00 | 0.00 | 0.00 | 100 | 1012.9 |
| 20260502054503 | 24 | 224 | 4.8 | 12.9 | 0.00 | 0.00 | 0.00 | 100 | 1013.0 |
| 20260502054002 | 24 | 208 | 3.2 | 9.7 | 0.00 | 0.00 | 0.00 | 100 | 1013.1 |
| 20260502053600 | 24 | 198 | 3.2 | 11.3 | 0.00 | 0.00 | 0.00 | 100 | 1013.1 |
| 20260502053102 | 24 | 205 | 4.8 | 8.0 | 0.00 | 0.00 | 0.00 | 100 | 1013.1 |
| 20260502052559 | 24 | 213 | 3.2 | 9.7 | 0.00 | 0.00 | 0.00 | 100 | 1013.1 |
| 20260502052058 | 24 | 194 | 4.8 | 12.9 | 0.00 | 0.00 | 0.00 | 100 | 1013.2 |
| 20260502051557 | 24 | 186 | 4.8 | 12.9 | 0.00 | 0.00 | 0.00 | 100 | 1013.2 |
| 20260502051058 | 24 | 167 | 4.8 | 11.3 | 0.00 | 0.00 | 0.00 | 100 | 1013.2 |
| 20260502050557 | 24 | 182 | 1.6 | 6.4 | 0.00 | 0.00 | 0.00 | 100 | 1013.2 |
| 20260502050056 | 24 | 246 | 1.6 | 11.3 | 0.00 | 0.00 | 0.00 | 100 | 1013.3 |
| 20260502045656 | 24 | 224 | 3.2 | 11.3 | 0.00 | 0.00 | 0.00 | 100 | 1013.3 |
| 20260502045055 | 24 | 210 | 3.2 | 8.0 | 0.00 | 0.00 | 0.00 | 100 | 1013.2 |
| 20260502044607 | 24 | 232 | 3.2 | 8.0 | 0.00 | 0.00 | 0.00 | 100 | 1013.2 |
| 20260502044056 | 25 | 225 | 1.6 | 8.0 | 0.00 | 0.00 | 0.00 | 100 | 1013.2 |
| 20260502043556 | 25 | 217 | 1.6 | 8.0 | 0.00 | 0.00 | 0.00 | 100 | 1013.2 |
| 20260502043124 | 25 | 220 | 3.2 | 8.0 | 0.00 | 0.00 | 0.00 | 100 | 1013.2 |
| 20260502042553 | 25 | 227 | 4.8 | 8.0 | 0.00 | 0.00 | 0.00 | 100 | 1013.2 |
| 20260502042052 | 25 | 189 | 1.6 | 6.4 | 0.00 | 0.00 | 0.00 | 100 | 1013.2 |
| 20260502041600 | 25 | 197 | 3.2 | 8.0 | 0.00 | 0.00 | 0.00 | 100 | 1013.2 |
| 20260502041054 | 25 | 242 | 4.8 | 12.9 | 0.00 | 0.00 | 0.00 | 100 | 1013.2 |
| 20260502040554 | 25 | 204 | 3.2 | 8.0 | 0.00 | 0.00 | 0.00 | 100 | 1013.3 |
| 20260502040051 | 25 | 213 | 3.2 | 11.3 | 0.00 | 0.00 | 0.00 | 100 | 1013.2 |
| 20260502035550 | 25 | 225 | 4.8 | 11.3 | 0.00 | 0.00 | 0.00 | 100 | 1013.3 |
| 20260502035049 | 25 | 235 | 3.2 | 12.9 | 0.00 | 0.00 | 0.00 | 100 | 1013.4 |
| 20260502034549 | 25 | 234 | 3.2 | 11.3 | 0.00 | 0.00 | 0.00 | 100 | 1013.3 |
| 20260502034050 | 25 | 217 | 3.2 | 11.3 | 0.00 | 0.00 | 0.00 | 100 | 1013.3 |
| 20260502033548 | 25 | 235 | 3.2 | 12.9 | 0.00 | 0.00 | 0.00 | 100 | 1013.3 |
| 20260502033051 | 25 | 211 | 3.2 | 12.9 | 0.00 | 0.00 | 0.00 | 100 | 1013.3 |
| 20260502032548 | 25 | 203 | 4.8 | 11.3 | 0.00 | 0.00 | 0.00 | 100 | 1013.3 |
| 20260502032050 | 25 | 218 | 3.2 | 11.3 | 0.00 | 0.00 | 0.00 | 100 | 1013.2 |
| 20260502031550 | 25 | 192 | 3.2 | 11.3 | 0.00 | 0.00 | 0.00 | 100 | 1013.2 |
| 20260502031048 | 25 | 210 | 4.8 | 11.3 | 0.00 | 0.00 | 0.00 | 100 | 1013.2 |
| 20260502030547 | 25 | 214 | 3.2 | 14.5 | 0.00 | 0.00 | 0.00 | 100 | 1013.2 |
| 20260502030049 | 25 | 228 | 4.8 | 14.5 | 0.00 | 0.00 | 0.00 | 100 | 1013.2 |
| 20260502025547 | 25 | 176 | 4.8 | 14.5 | 0.00 | 0.00 | 0.00 | 100 | 1013.3 |
| 20260502025047 | 25 | 221 | 4.8 | 14.5 | 0.00 | 0.00 | 0.00 | 100 | 1013.3 |
| 20260502024548 | 25 | 236 | 3.2 | 9.7 | 0.00 | 0.00 | 0.00 | 100 | 1013.2 |
| 20260502024047 | 25 | 202 | 4.8 | 9.7 | 0.00 | 0.00 | 0.00 | 100 | 1013.1 |
| 20260502023549 | 26 | 205 | 3.2 | 14.5 | 0.00 | 0.00 | 0.00 | 100 | 1013.1 |
| 20260502023047 | 26 | 181 | 6.4 | 14.5 | 0.00 | 0.00 | 0.00 | 100 | 1013.0 |
| 20260502022545 | 26 | 159 | 6.4 | 14.5 | 0.00 | 0.00 | 0.00 | 100 | 1012.9 |
| 20260502022045 | 26 | 171 | 4.8 | 12.9 | 0.00 | 0.00 | 0.00 | 100 | 1012.9 |
| 20260502021546 | 26 | 190 | 6.4 | 12.9 | 0.00 | 0.00 | 0.00 | 100 | 1012.9 |
| 20260502021045 | 26 | 141 | 6.4 | 19.3 | 0.00 | 0.00 | 0.00 | 100 | 1012.9 |
| 20260502020548 | 26 | 190 | 4.8 | 14.5 | 0.00 | 0.00 | 0.00 | 100 | 1012.8 |
| 20260502020045 | 26 | 159 | 8.0 | 16.1 | 0.00 | 0.00 | 0.00 | 100 | 1012.7 |
| 20260502015545 | 26 | 192 | 4.8 | 12.9 | 0.00 | 0.00 | 0.00 | 100 | 1012.8 |
| 20260502015045 | 26 | 174 | 4.8 | 12.9 | 0.00 | 0.00 | 0.00 | 100 | 1012.7 |
| 20260502014545 | 26 | 198 | 4.8 | 19.3 | 0.00 | 0.00 | 0.00 | 100 | 1012.7 |
| 20260502014044 | 26 | 169 | 8.0 | 19.3 | 0.00 | 0.00 | 0.00 | 100 | 1012.6 |
| 20260502013544 | 26 | 157 | 6.4 | 17.7 | 0.00 | 0.00 | 0.00 | 100 | 1012.6 |
| 20260502013052 | 26 | 161 | 8.0 | 17.7 | 0.00 | 0.00 | 0.00 | 100 | 1012.5 |
| 20260502012544 | 26 | 166 | 8.0 | 17.7 | 0.00 | 0.00 | 0.00 | 100 | 1012.4 |
| 20260502012044 | 26 | 175 | 9.7 | 20.9 | 0.00 | 0.00 | 0.00 | 100 | 1012.5 |
| 20260502011547 | 26 | 159 | 11.3 | 20.9 | 0.00 | 0.00 | 0.00 | 100 | 1012.4 |
| 20260502011043 | 26 | 125 | 9.7 | 20.9 | 0.00 | 0.00 | 0.00 | 100 | 1012.3 |
| 20260502010543 | 26 | 171 | 8.0 | 20.9 | 0.00 | 0.00 | 0.00 | 100 | 1012.3 |
| 20260502010043 | 26 | 174 | 8.0 | 22.5 | 0.00 | 0.00 | 0.00 | 100 | 1012.1 |
| 20260502005544 | 26 | 162 | 6.4 | 20.9 | 0.00 | 0.00 | 0.00 | 100 | 1012.2 |
| 20260502005043 | 26 | 115 | 6.4 | 22.5 | 0.00 | 0.00 | 0.00 | 100 | 1012.1 |